Regional Weather Roundup
Issued by NWS

Home | Current Version | Previous Version | Graphics & Text | Print | Product List | Glossary On
Versions: 1 2 3 4 5 6 7 8 9 10 11 12 13 14 15 16 17 18 19 20 21 22 23 24 25 26 27 28 29 30 31 32 33 34 35 36 37 38 39 40 41 42 43 44 45 46 47 48 49 50
000
ASUS44 KMEG 310210
RWRTN
TENNESSEE HOURLY STATE WEATHER ROUNDUP
NATIONAL WEATHER SERVICE MEMPHIS TN
900 PM CDT SAT AUG 30 2014

TNZ002-004-019-021-049-052-054-088>092-310300-
WEST TENNESSEE

CITY           SKY/WX    TMP DP  RH WIND       PRES   REMARKS
MEMPHIS INTL   CLOUDY    74  71  91 SE9       30.00F
NWS MEMPHIS      N/A     73 N/A N/A MISG        N/A
JACKSON        LGT RAIN  73  70  90 S7        30.04S
DYERSBURG      CLOUDY    73  64  73 S6        30.03R
UNION CITY     MOCLDY    73  73 100 S8        30.01S
PARIS          PTCLDY    72  72 100 S5        30.05R
HUNTINGDON     CLOUDY    72  71  96 S7        30.05R
LEXINGTON      PTCLDY    73  72  94 S7        30.07R
SAVANNAH       CLEAR     72  72 100 S3        30.07S
$$

TNZ008-025-027-028-033-062-065-066-310300-
NORTH MIDDLE TENNESSEE

CITY           SKY/WX    TMP DP  RH WIND       PRES   REMARKS
NASHVILLE      RAIN      73  71  93 S10       30.09S FOG
DICKSON          N/A     73  72  94 SE5       30.09R
PORTLAND       CLOUDY    72  72 100 CALM      30.08R
CLARKSVILLE    CLOUDY    75  73  93 SE6       30.05S
LEBANON        CLOUDY    72  71  96 S10       30.08R
SMYRNA         RAIN      73  72  94 S7        30.10S FOG
COOKEVILLE     CLOUDY    73  73 100 SW9       30.14R
GALLATIN       CLOUDY    72  72 100 SW13G26   30.10R VSB 1/2
CROSSVILLE     CLOUDY    71  68  90 S3        30.16R
$$

TNZ061-075-076-078-094-096-097-310300-
SOUTH MIDDLE TENNESSEE

CITY           SKY/WX    TMP DP  RH WIND       PRES   REMARKS
LEWISBURG      CLOUDY    71  69  93 S6        30.11R
FAYETTEVILLE   PTCLDY    70  68  94 S5        30.13F
TULLAHOMA      CLOUDY    70  66  88 SW6       30.16S
WINCHESTER     CLOUDY    70  70 100 CALM      30.16F
MCMINNVILLE      N/A     72  72 100 SW12      30.16R
COLUMBIA         N/A     72  72 100 CALM      30.09R
SHELBYVILLE    CLOUDY    72  72 100 S8        30.14R
$$

TNZ017-018-042-046-047-310300-
NORTHEAST TENNESSEE

CITY           SKY/WX    TMP DP  RH WIND       PRES   REMARKS
TRI CITIES     CLOUDY    80  62  54 S5        30.16R
ELIZABETHTON   CLEAR     72  64  78 CALM      30.18R
$$

TNZ012-013-036-069-073-074-310300-
CENTRAL EAST TENNESSEE

CITY           SKY/WX    TMP DP  RH WIND       PRES   REMARKS
KNOXVILLE      LGT RAIN  73  71  93 SW8       30.13R
OAK RIDGE      LGT RAIN  71  69  93 CALM      30.15F
GATLINBURG     CLOUDY    75  72  88 CALM      30.12R
MORRISTOWN     PTCLDY    75  72  88 CALM      30.15R
$$

TNZ083-085-099-310300-
SOUTHEAST TENNESSEE

CITY           SKY/WX    TMP DP  RH WIND       PRES   REMARKS
CHATTANOOGA    TSTM      73  70  90 SW5       30.15R FOG
$$

SKY/WX REPORTED AS FAIR MEANS FEW OR NO CLOUDS BELOW
12 THOUSAND FEET.



USA.gov is the U.S. government's official web portal to all federal, state and local government web resources and services.